| time (UTC) | temp F | wind direction | speed knots | gust knots | rain 1hr in | rain 24hr in | rain mn in | humidity % | barometer mb |
| 20260507101425 | 53 | 16 | 2.6 | 3.5 | 0.00 | 0.24 | 0.13 | 97 | 1014.0 |
| 20260507100855 | 53 | 65 | 0.9 | 3.5 | 0.00 | 0.24 | 0.13 | 97 | 1014.1 |
| 20260507100354 | 53 | 354 | 1.7 | 4.3 | 0.00 | 0.24 | 0.13 | 98 | 1014.1 |
| 20260507095516 | 53 | 7 | 1.7 | 5.2 | 0.00 | 0.24 | 0.13 | 99 | 1014.1 |
| 20260507094755 | 53 | 9 | 3.5 | 4.3 | 0.00 | 0.24 | 0.13 | 99 | 1014.1 |
| 20260507094225 | 53 | 88 | 0.9 | 1.7 | 0.00 | 0.24 | 0.13 | 99 | 1014.0 |
| 20260507093652 | 54 | 127 | 0.0 | 1.7 | 0.00 | 0.24 | 0.13 | 99 | 1014.0 |
| 20260507093418 | 54 | 104 | 1.7 | 1.7 | 0.00 | 0.24 | 0.13 | 98 | 1013.8 |
| 20260507092625 | 54 | 122 | 0.0 | 2.6 | 0.00 | 0.24 | 0.13 | 98 | 1014.1 |
| 20260507092054 | 54 | 216 | 0.0 | 4.3 | 0.00 | 0.24 | 0.13 | 97 | 1014.1 |
| 20260507091552 | 54 | 29 | 1.7 | 4.3 | 0.00 | 0.24 | 0.13 | 97 | 1013.9 |
| 20260507091024 | 54 | 54 | 1.7 | 5.2 | 0.00 | 0.24 | 0.13 | 96 | 1013.9 |
| 20260507090451 | 54 | 28 | 2.6 | 5.2 | 0.00 | 0.24 | 0.13 | 96 | 1013.9 |
| 20260507085952 | 54 | 6 | 2.6 | 5.2 | 0.00 | 0.24 | 0.13 | 97 | 1013.7 |
| 20260507085422 | 54 | 98 | 1.7 | 4.3 | 0.00 | 0.24 | 0.13 | 98 | 1013.7 |
| 20260507084853 | 54 | 46 | 0.9 | 4.3 | 0.00 | 0.24 | 0.13 | 98 | 1013.6 |
| 20260507084352 | 54 | 22 | 1.7 | 4.3 | 0.00 | 0.24 | 0.13 | 97 | 1013.9 |
| 20260507083822 | 54 | 97 | 2.6 | 4.3 | 0.00 | 0.24 | 0.13 | 97 | 1013.8 |
| 20260507083251 | 55 | 3 | 1.7 | 4.3 | 0.00 | 0.24 | 0.13 | 97 | 1013.7 |
| 20260507082753 | 55 | 66 | 0.9 | 4.3 | 0.00 | 0.24 | 0.13 | 97 | 1013.6 |
| 20260507082223 | 55 | 68 | 0.9 | 6.1 | 0.00 | 0.24 | 0.13 | 97 | 1013.4 |
| 20260507081912 | 55 | 18 | 5.2 | 5.2 | 0.00 | 0.24 | 0.13 | 96 | 1013.4 |
| 20260507081150 | 55 | 12 | 1.7 | 5.2 | 0.00 | 0.24 | 0.13 | 96 | 1013.2 |
| 20260507080622 | 55 | 20 | 0.9 | 6.1 | 0.00 | 0.24 | 0.13 | 96 | 1013.0 |
| 20260507080104 | 55 | 105 | 1.7 | 6.1 | 0.00 | 0.24 | 0.13 | 96 | 1013.2 |
| 20260507075253 | 56 | 359 | 2.6 | 11.3 | 0.00 | 0.24 | 0.13 | 96 | 1013.1 |
| 20260507074452 | 55 | 345 | 2.6 | 7.0 | 0.00 | 0.24 | 0.13 | 97 | 1012.7 |
| 20260507073949 | 55 | 32 | 1.7 | 7.0 | 0.00 | 0.24 | 0.13 | 99 | 1012.4 |
| 20260507073420 | 56 | 16 | 3.5 | 7.8 | 0.00 | 0.24 | 0.13 | 99 | 1012.5 |
| 20260507072849 | 56 | 68 | 2.6 | 5.2 | 0.00 | 0.24 | 0.13 | 100 | 1013.0 |
| 20260507072610 | 56 | 4 | 4.3 | 5.2 | 0.00 | 0.24 | 0.13 | 100 | 1012.6 |
| 20260507071822 | 56 | 56 | 2.6 | 6.1 | 0.00 | 0.24 | 0.13 | 100 | 1012.5 |
| 20260507071249 | 56 | 5 | 0.0 | 6.1 | 0.00 | 0.24 | 0.13 | 100 | 1012.3 |
| 20260507070748 | 56 | 54 | 0.0 | 4.3 | 0.00 | 0.24 | 0.13 | 100 | 1012.6 |
| 20260507070220 | 56 | 27 | 0.0 | 4.3 | 0.00 | 0.24 | 0.13 | 100 | 1012.7 |
| 20260507065648 | 56 | 165 | 1.7 | 5.2 | 0.00 | 0.24 | 0.13 | 100 | 1012.8 |
| 20260507065148 | 56 | 336 | 0.9 | 5.2 | 0.00 | 0.24 | 0.13 | 100 | 1012.6 |
| 20260507064620 | 56 | 16 | 5.2 | 6.1 | 0.00 | 0.24 | 0.13 | 100 | 1012.3 |
| 20260507064048 | 56 | 68 | 0.0 | 9.6 | 0.00 | 0.24 | 0.13 | 100 | 1012.1 |
| 20260507063547 | 56 | 6 | 1.7 | 9.6 | 0.01 | 0.24 | 0.13 | 100 | 1012.2 |
| 20260507063023 | 56 | 18 | 3.5 | 8.7 | 0.02 | 0.24 | 0.13 | 100 | 1011.9 |
| 20260507061948 | 56 | 24 | 6.1 | 8.7 | 0.05 | 0.24 | 0.13 | 100 | 1011.9 |
| 20260507061637 | 57 | 357 | 1.7 | 7.8 | 0.07 | 0.24 | 0.13 | 100 | 1012.4 |
| 20260507060848 | 57 | 37 | 2.6 | 9.6 | 0.09 | 0.24 | 0.13 | 100 | 1012.3 |
| 20260507060348 | 57 | 310 | 4.3 | 9.6 | 0.11 | 0.24 | 0.13 | 100 | 1012.3 |
| 20260507055820 | 57 | 331 | 3.5 | 9.6 | 0.11 | 0.24 | 0.13 | 100 | 1012.4 |
| 20260507055508 | 57 | 20 | 5.2 | 9.6 | 0.12 | 0.24 | 0.13 | 100 | 1012.8 |
| 20260507054748 | 58 | 272 | 0.0 | 5.2 | 0.12 | 0.24 | 0.13 | 100 | 1012.5 |
| 20260507054215 | 58 | 12 | 1.7 | 6.1 | 0.13 | 0.24 | 0.13 | 100 | 1012.3 |
| 20260507053646 | 58 | 346 | 1.7 | 6.1 | 0.12 | 0.23 | 0.12 | 100 | 1012.0 |
| 20260507053158 | 59 | 322 | 3.5 | 5.2 | 0.11 | 0.22 | 0.11 | 100 | 1012.3 |
| 20260507052617 | 60 | 305 | 1.7 | 3.5 | 0.09 | 0.20 | 0.09 | 100 | 1012.8 |
| 20260507052046 | 60 | 2 | 1.7 | 3.5 | 0.08 | 0.19 | 0.08 | 99 | 1012.3 |
| 20260507051546 | 60 | 159 | 1.7 | 3.5 | 0.06 | 0.17 | 0.06 | 99 | 1012.7 |
| 20260507051238 | 60 | 221 | 0.9 | 3.5 | 0.04 | 0.15 | 0.04 | 97 | 1012.5 |
| 20260507050516 | 61 | 328 | 0.0 | 2.6 | 0.02 | 0.13 | 0.02 | 96 | 1012.2 |
| 20260507045814 | 61 | 57 | 1.7 | 3.5 | 0.01 | 0.12 | 0.01 | 94 | 1012.3 |
| 20260507045316 | 62 | 333 | 0.0 | 4.3 | 0.01 | 0.12 | 0.01 | 93 | 1012.4 |
| 20260507044744 | 62 | 250 | 1.7 | 4.3 | 0.00 | 0.11 | 0.00 | 91 | 1012.5 |
| 20260507044214 | 63 | 352 | 0.0 | 4.3 | 0.00 | 0.11 | 0.00 | 89 | 1012.8 |
| 20260507043713 | 64 | 137 | 0.0 | 4.3 | 0.00 | 0.11 | 0.00 | 87 | 1012.4 |
| 20260507043143 | 64 | 268 | 1.7 | 3.5 | 0.00 | 0.11 | 0.00 | 87 | 1012.4 |
| 20260507042613 | 64 | 290 | 1.7 | 4.3 | 0.00 | 0.11 | 0.00 | 87 | 1012.3 |
| 20260507042334 | 64 | 301 | 0.0 | 5.2 | 0.00 | 0.11 | 0.00 | 87 | 1012.2 |
| 20260507041543 | 64 | 352 | 1.7 | 5.2 | 0.00 | 0.11 | 0.00 | 87 | 1012.0 |
| 20260507041237 | 64 | 330 | 0.0 | 5.2 | 0.00 | 0.11 | 0.00 | 87 | 1011.8 |
| 20260507040513 | 64 | 36 | 3.5 | 6.1 | 0.00 | 0.11 | 0.00 | 88 | 1011.7 |
| 20260507035943 | 64 | 34 | 2.6 | 9.6 | 0.00 | 0.11 | 0.11 | 88 | 1011.7 |
| 20260507035442 | 64 | 12 | 3.5 | 11.3 | 0.00 | 0.11 | 0.11 | 89 | 1012.1 |
| 20260507034912 | 64 | 35 | 2.6 | 11.3 | 0.00 | 0.11 | 0.11 | 89 | 1012.2 |
| 20260507033312 | 65 | 324 | 2.6 | 3.5 | 0.00 | 0.11 | 0.11 | 95 | 1011.7 |
| 20260507032742 | 65 | 289 | 1.7 | 3.5 | 0.00 | 0.11 | 0.11 | 95 | 1011.6 |
| 20260507032241 | 65 | 256 | 0.0 | 6.1 | 0.00 | 0.11 | 0.11 | 95 | 1011.6 |
| 20260507031711 | 65 | 137 | 0.0 | 6.1 | 0.00 | 0.11 | 0.11 | 96 | 1011.6 |
| 20260507031141 | 65 | 257 | 1.7 | 3.5 | 0.00 | 0.11 | 0.11 | 97 | 1011.6 |
| 20260507030640 | 65 | 344 | 0.0 | 2.6 | 0.00 | 0.11 | 0.11 | 97 | 1011.7 |
| 20260507030110 | 65 | 228 | 0.0 | 2.6 | 0.00 | 0.11 | 0.11 | 97 | 1011.7 |
| 20260507025541 | 65 | 276 | 0.0 | 3.5 | 0.00 | 0.11 | 0.11 | 98 | 1011.4 |
| 20260507025040 | 64 | 341 | 0.0 | 3.5 | 0.00 | 0.11 | 0.11 | 100 | 1011.6 |
| 20260507024510 | 64 | 300 | 1.7 | 1.7 | 0.00 | 0.11 | 0.11 | 100 | 1011.2 |
| 20260507023939 | 64 | 88 | 0.0 | 1.7 | 0.00 | 0.11 | 0.11 | 100 | 1010.8 |
| 20260507023440 | 64 | 30 | 0.0 | 1.7 | 0.00 | 0.11 | 0.11 | 100 | 1011.1 |
| 20260507022910 | 64 | 14 | 0.0 | 1.7 | 0.00 | 0.11 | 0.11 | 100 | 1011.0 |
| 20260507022340 | 64 | 356 | 0.0 | 1.7 | 0.00 | 0.11 | 0.11 | 100 | 1010.9 |
| 20260507021840 | 64 | 141 | 0.0 | 1.7 | 0.00 | 0.11 | 0.11 | 100 | 1010.9 |
| 20260507021529 | 64 | 142 | 0.0 | 1.7 | 0.00 | 0.11 | 0.11 | 100 | 1011.0 |
| 20260507020238 | 64 | 352 | 0.0 | 0.0 | 0.00 | 0.11 | 0.11 | 100 | 1010.8 |
| 20260507015138 | 64 | 127 | 0.0 | 1.7 | 0.00 | 0.11 | 0.11 | 100 | 1010.8 |
| 20260507014638 | 64 | 28 | 0.0 | 0.9 | 0.00 | 0.11 | 0.11 | 100 | 1011.2 |
| 20260507014122 | 64 | 5 | 0.0 | 0.9 | 0.00 | 0.11 | 0.11 | 100 | 1011.2 |
| 20260507013539 | 64 | 46 | 0.0 | 1.7 | 0.00 | 0.11 | 0.11 | 100 | 1011.4 |
| 20260507013315 | 64 | 221 | 0.0 | 1.7 | 0.00 | 0.11 | 0.11 | 100 | 1011.7 |
| 20260507012520 | 64 | 156 | 0.9 | 1.7 | 0.00 | 0.11 | 0.11 | 100 | 1011.5 |
| 20260507011938 | 64 | 114 | 0.0 | 0.9 | 0.00 | 0.11 | 0.11 | 100 | 1011.7 |
| 20260507011658 | 64 | 204 | 0.0 | 1.7 | 0.00 | 0.11 | 0.11 | 100 | 1011.7 |
| 20260507011128 | 64 | 238 | 0.0 | 1.7 | 0.00 | 0.11 | 0.11 | 100 | 1011.6 |
| 20260507010338 | 64 | 170 | 0.0 | 1.7 | 0.00 | 0.11 | 0.11 | 99 | 1011.8 |
| 20260507010058 | 64 | 7 | 0.0 | 1.7 | 0.00 | 0.11 | 0.11 | 99 | 1011.4 |
| 20260507005531 | 64 | 222 | 0.0 | 1.7 | 0.00 | 0.11 | 0.11 | 99 | 1011.5 |
| 20260507004736 | 64 | 24 | 1.7 | 1.7 | 0.00 | 0.11 | 0.11 | 98 | 1010.8 |
| 20260507004236 | 64 | 146 | 0.0 | 1.7 | 0.00 | 0.11 | 0.11 | 98 | 1011.1 |
| 20260507003706 | 64 | 139 | 0.0 | 1.7 | 0.00 | 0.11 | 0.11 | 97 | 1011.2 |
| 20260507002106 | 65 | 81 | 0.0 | 1.7 | 0.00 | 0.11 | 0.11 | 95 | 1011.0 |
| 20260507001535 | 66 | 131 | 0.9 | 1.7 | 0.00 | 0.11 | 0.11 | 95 | 1011.0 |
| 20260507001049 | 66 | 29 | 0.0 | 0.0 | 0.00 | 0.11 | 0.11 | 94 | 1011.2 |
| 20260507000505 | 66 | 116 | 0.0 | 1.7 | 0.00 | 0.11 | 0.11 | 94 | 1011.1 |
| 20260506235935 | 66 | 204 | 0.0 | 1.7 | 0.00 | 0.11 | 0.11 | 94 | 1010.9 |
| 20260506235434 | 67 | 120 | 0.0 | 1.7 | 0.00 | 0.11 | 0.11 | 93 | 1011.0 |
| 20260506234905 | 67 | 136 | 0.0 | 1.7 | 0.00 | 0.11 | 0.11 | 92 | 1010.7 |
| 20260506234336 | 67 | 147 | 0.0 | 1.7 | 0.00 | 0.11 | 0.11 | 91 | 1010.6 |
| 20260506233835 | 68 | 120 | 0.0 | 1.7 | 0.00 | 0.11 | 0.11 | 90 | 1010.7 |
| 20260506233304 | 68 | 223 | 0.0 | 2.6 | 0.00 | 0.11 | 0.11 | 89 | 1010.7 |
| 20260506232734 | 68 | 134 | 1.7 | 2.6 | 0.00 | 0.11 | 0.11 | 89 | 1010.4 |
| 20260506232234 | 68 | 229 | 1.7 | 2.6 | 0.00 | 0.11 | 0.11 | 88 | 1010.3 |
| 20260506231704 | 68 | 158 | 2.6 | 4.3 | 0.00 | 0.11 | 0.11 | 87 | 1010.3 |
| 20260506231134 | 68 | 235 | 0.0 | 8.7 | 0.00 | 0.11 | 0.11 | 87 | 1010.5 |
| 20260506230646 | 69 | 162 | 0.0 | 8.7 | 0.00 | 0.11 | 0.11 | 87 | 1010.5 |
| 20260506230106 | 69 | 245 | 1.7 | 4.3 | 0.00 | 0.11 | 0.11 | 86 | 1010.7 |
| 20260506225533 | 69 | 315 | 1.7 | 9.6 | 0.00 | 0.11 | 0.11 | 86 | 1010.6 |
| 20260506225034 | 69 | 332 | 0.0 | 10.4 | 0.00 | 0.11 | 0.11 | 86 | 1010.4 |
| 20260506224503 | 69 | 216 | 6.1 | 10.4 | 0.00 | 0.11 | 0.11 | 85 | 1010.3 |
| 20260506224002 | 69 | 204 | 1.7 | 6.1 | 0.00 | 0.11 | 0.11 | 86 | 1010.4 |
| 20260506222902 | 69 | 311 | 1.7 | 7.0 | 0.00 | 0.11 | 0.11 | 85 | 1010.4 |
| 20260506222634 | 69 | 241 | 2.6 | 6.1 | 0.00 | 0.11 | 0.11 | 85 | 1010.4 |
| 20260506221831 | 69 | 236 | 3.5 | 7.8 | 0.00 | 0.11 | 0.11 | 85 | 1010.5 |
| 20260506221303 | 69 | 201 | 3.5 | 10.4 | 0.00 | 0.11 | 0.11 | 85 | 1010.5 |
| 20260506220801 | 69 | 218 | 2.6 | 10.4 | 0.00 | 0.11 | 0.11 | 84 | 1010.7 |
| 20260506220231 | 70 | 201 | 3.5 | 11.3 | 0.00 | 0.11 | 0.11 | 84 | 1010.3 |
| 20260506215701 | 70 | 260 | 1.7 | 11.3 | 0.00 | 0.11 | 0.11 | 84 | 1010.7 |
| 20260506215202 | 69 | 207 | 3.5 | 13.9 | 0.00 | 0.11 | 0.11 | 83 | 1010.5 |
| 20260506214631 | 70 | 217 | 3.5 | 13.9 | 0.00 | 0.11 | 0.11 | 83 | 1010.6 |
| 20260506214101 | 69 | 229 | 6.1 | 13.0 | 0.00 | 0.11 | 0.11 | 84 | 1010.4 |
| 20260506213601 | 70 | 207 | 5.2 | 13.0 | 0.00 | 0.11 | 0.11 | 84 | 1010.3 |
| 20260506213031 | 70 | 250 | 7.8 | 11.3 | 0.00 | 0.11 | 0.11 | 83 | 1010.1 |
| 20260506212501 | 70 | 193 | 3.5 | 11.3 | 0.00 | 0.11 | 0.11 | 83 | 1010.2 |
| 20260506211959 | 70 | 236 | 5.2 | 12.2 | 0.00 | 0.11 | 0.11 | 83 | 1010.3 |
| 20260506211429 | 69 | 221 | 3.5 | 12.2 | 0.00 | 0.11 | 0.11 | 84 | 1010.4 |
| 20260506210400 | 69 | 220 | 7.8 | 10.4 | 0.00 | 0.11 | 0.11 | 83 | 1010.1 |
| 20260506205829 | 70 | 219 | 5.2 | 13.0 | 0.00 | 0.11 | 0.11 | 83 | 1010.0 |
| 20260506205259 | 70 | 228 | 2.6 | 13.9 | 0.00 | 0.11 | 0.11 | 84 | 1009.8 |
| 20260506204759 | 69 | 238 | 2.6 | 13.9 | 0.00 | 0.11 | 0.11 | 84 | 1010.0 |
| 20260506204229 | 69 | 237 | 6.1 | 13.0 | 0.00 | 0.11 | 0.11 | 85 | 1010.1 |
| 20260506203659 | 69 | 330 | 1.7 | 13.0 | 0.00 | 0.11 | 0.11 | 84 | 1010.1 |
| 20260506203159 | 69 | 267 | 6.1 | 13.9 | 0.00 | 0.11 | 0.11 | 84 | 1009.8 |
| 20260506202628 | 69 | 219 | 3.5 | 13.9 | 0.00 | 0.11 | 0.11 | 85 | 1010.0 |
| 20260506202058 | 69 | 234 | 6.1 | 11.3 | 0.00 | 0.11 | 0.11 | 85 | 1010.0 |
| 20260506201600 | 69 | 264 | 2.6 | 13.0 | 0.00 | 0.11 | 0.11 | 84 | 1010.1 |
| 20260506201259 | 69 | 252 | 4.3 | 13.0 | 0.00 | 0.11 | 0.11 | 84 | 1010.2 |
| 20260506200458 | 69 | 231 | 3.5 | 13.0 | 0.00 | 0.11 | 0.11 | 84 | 1010.0 |
| 20260506195958 | 69 | 225 | 2.6 | 10.4 | 0.00 | 0.11 | 0.11 | 84 | 1010.0 |
| 20260506195652 | 69 | 273 | 6.1 | 16.5 | 0.00 | 0.11 | 0.11 | 85 | 1010.0 |
| 20260506194857 | 68 | 203 | 5.2 | 16.5 | 0.00 | 0.11 | 0.11 | 86 | 1010.2 |
| 20260506194357 | 69 | 190 | 4.3 | 13.0 | 0.00 | 0.11 | 0.11 | 85 | 1010.3 |
| 20260506193828 | 69 | 233 | 7.0 | 14.8 | 0.00 | 0.11 | 0.11 | 83 | 1010.2 |
| 20260506193256 | 68 | 208 | 5.2 | 14.8 | 0.00 | 0.11 | 0.11 | 85 | 1009.9 |
| 20260506192757 | 69 | 210 | 5.2 | 7.8 | 0.00 | 0.11 | 0.11 | 85 | 1010.2 |
| 20260506192227 | 68 | 228 | 5.2 | 11.3 | 0.00 | 0.11 | 0.11 | 86 | 1010.1 |
| 20260506191656 | 68 | 219 | 7.8 | 11.3 | 0.00 | 0.11 | 0.11 | 85 | 1010.6 |
| 20260506191415 | 68 | 193 | 4.3 | 12.2 | 0.00 | 0.11 | 0.11 | 85 | 1010.4 |
| 20260506190846 | 68 | 8 | 1.7 | 12.2 | 0.00 | 0.11 | 0.11 | 85 | 1010.4 |
| 20260506190108 | 68 | 196 | 2.6 | 9.6 | 0.00 | 0.11 | 0.11 | 86 | 1010.6 |
| 20260506185826 | 68 | 207 | 5.2 | 12.2 | 0.00 | 0.11 | 0.11 | 86 | 1010.4 |
| 20260506185033 | 68 | 225 | 5.2 | 13.0 | 0.00 | 0.11 | 0.11 | 86 | 1010.7 |
| 20260506184455 | 68 | 238 | 7.0 | 13.0 | 0.00 | 0.11 | 0.11 | 85 | 1010.6 |
| 20260506183955 | 68 | 231 | 6.1 | 13.0 | 0.00 | 0.11 | 0.11 | 84 | 1010.9 |
| 20260506183425 | 67 | 218 | 7.0 | 19.1 | 0.00 | 0.11 | 0.11 | 85 | 1010.7 |
| 20260506182855 | 67 | 210 | 7.8 | 19.1 | 0.00 | 0.11 | 0.11 | 85 | 1011.0 |
| 20260506182618 | 68 | 233 | 7.8 | 14.8 | 0.00 | 0.11 | 0.11 | 86 | 1011.0 |
| 20260506182042 | 68 | 201 | 8.7 | 14.8 | 0.00 | 0.11 | 0.11 | 87 | 1011.0 |
| 20260506181255 | 67 | 218 | 8.7 | 14.8 | 0.00 | 0.11 | 0.11 | 86 | 1011.1 |
| 20260506180754 | 67 | 196 | 9.6 | 13.0 | 0.00 | 0.11 | 0.11 | 87 | 1011.0 |
| 20260506180225 | 67 | 196 | 7.0 | 14.8 | 0.00 | 0.11 | 0.11 | 87 | 1011.3 |
| 20260506175653 | 66 | 215 | 6.1 | 15.6 | 0.00 | 0.11 | 0.11 | 87 | 1011.1 |
| 20260506175154 | 66 | 245 | 2.6 | 16.5 | 0.00 | 0.11 | 0.11 | 87 | 1011.4 |
| 20260506174623 | 65 | 216 | 8.7 | 16.5 | 0.00 | 0.11 | 0.11 | 89 | 1011.3 |
| 20260506174326 | 66 | 201 | 5.2 | 12.2 | 0.00 | 0.11 | 0.11 | 89 | 1011.4 |
| 20260506173553 | 65 | 220 | 7.8 | 13.0 | 0.00 | 0.11 | 0.11 | 90 | 1011.1 |
| 20260506173249 | 65 | 147 | 1.7 | 17.4 | 0.00 | 0.11 | 0.11 | 91 | 1011.4 |
| 20260506172453 | 65 | 182 | 8.7 | 17.4 | 0.00 | 0.11 | 0.11 | 91 | 1011.6 |
| 20260506171953 | 65 | 229 | 6.1 | 14.8 | 0.00 | 0.11 | 0.11 | 91 | 1011.4 |
| 20260506171644 | 65 | 212 | 5.2 | 16.5 | 0.00 | 0.11 | 0.11 | 91 | 1011.4 |
| 20260506170922 | 65 | 132 | 2.6 | 16.5 | 0.00 | 0.11 | 0.11 | 91 | 1011.7 |
| 20260506170354 | 64 | 230 | 7.0 | 15.6 | 0.00 | 0.11 | 0.11 | 91 | 1011.5 |
| 20260506165823 | 64 | 238 | 7.0 | 21.7 | 0.00 | 0.11 | 0.11 | 93 | 1011.5 |
| 20260506165322 | 64 | 217 | 8.7 | 21.7 | 0.00 | 0.11 | 0.11 | 94 | 1011.7 |
| 20260506164752 | 64 | 208 | 6.1 | 11.3 | 0.00 | 0.11 | 0.11 | 95 | 1011.6 |
| 20260506164223 | 63 | 220 | 2.6 | 13.9 | 0.00 | 0.11 | 0.11 | 96 | 1011.6 |
| 20260506163723 | 64 | 204 | 6.1 | 13.9 | 0.01 | 0.11 | 0.11 | 96 | 1011.5 |
| 20260506163151 | 63 | 179 | 7.0 | 15.6 | 0.02 | 0.11 | 0.11 | 96 | 1011.6 |
| 20260506162841 | 63 | 208 | 7.8 | 10.4 | 0.02 | 0.11 | 0.11 | 97 | 1011.6 |
| 20260506162123 | 64 | 150 | 7.0 | 9.6 | 0.02 | 0.11 | 0.11 | 97 | 1011.5 |
| 20260506161550 | 63 | 256 | 1.7 | 13.0 | 0.02 | 0.11 | 0.11 | 98 | 1011.7 |
| 20260506161024 | 62 | 261 | 0.0 | 13.0 | 0.02 | 0.11 | 0.11 | 99 | 1011.9 |
| 20260506160745 | 62 | 215 | 3.5 | 13.9 | 0.02 | 0.11 | 0.11 | 100 | 1012.2 |
| 20260506160229 | 61 | 213 | 13.0 | 13.9 | 0.02 | 0.11 | 0.11 | 100 | 1012.1 |
| 20260506155420 | 61 | 210 | 3.5 | 10.4 | 0.03 | 0.11 | 0.11 | 100 | 1011.8 |
| 20260506154349 | 61 | 191 | 5.2 | 10.4 | 0.06 | 0.11 | 0.11 | 100 | 1011.9 |
| 20260506153821 | 61 | 113 | 1.7 | 9.6 | 0.06 | 0.10 | 0.10 | 100 | 1011.9 |
| 20260506153321 | 61 | 207 | 2.6 | 12.2 | 0.06 | 0.09 | 0.09 | 100 | 1011.9 |
| 20260506152749 | 61 | 228 | 3.5 | 12.2 | 0.07 | 0.09 | 0.09 | 100 | 1012.0 |
| 20260506152442 | 61 | 146 | 1.7 | 12.2 | 0.08 | 0.09 | 0.09 | 100 | 1012.9 |
| 20260506151721 | 61 | 141 | 3.5 | 12.2 | 0.07 | 0.09 | 0.09 | 100 | 1012.7 |
| 20260506151148 | 61 | 224 | 6.1 | 7.0 | 0.07 | 0.09 | 0.09 | 100 | 1012.8 |
| 20260506150619 | 60 | 184 | 2.6 | 6.1 | 0.08 | 0.09 | 0.09 | 100 | 1012.9 |
| 20260506150119 | 61 | 235 | 2.6 | 5.2 | 0.08 | 0.09 | 0.09 | 100 | 1012.7 |
| 20260506145549 | 60 | 224 | 4.3 | 5.2 | 0.08 | 0.08 | 0.08 | 100 | 1012.7 |
| 20260506145021 | 61 | 206 | 1.7 | 5.2 | 0.07 | 0.07 | 0.07 | 99 | 1012.8 |
| 20260506144520 | 61 | 202 | 3.5 | 8.7 | 0.06 | 0.06 | 0.06 | 99 | 1012.9 |
| 20260506143951 | 61 | 213 | 4.3 | 9.6 | 0.04 | 0.04 | 0.04 | 98 | 1012.8 |
| 20260506143418 | 61 | 197 | 4.3 | 7.8 | 0.03 | 0.03 | 0.03 | 96 | 1012.8 |
| 20260506143142 | 62 | 284 | 1.7 | 7.0 | 0.02 | 0.02 | 0.02 | 96 | 1012.9 |
| 20260506142348 | 62 | 208 | 3.5 | 10.4 | 0.02 | 0.02 | 0.02 | 95 | 1012.7 |
| 20260506141818 | 62 | 139 | 3.5 | 10.4 | 0.01 | 0.01 | 0.01 | 94 | 1012.7 |
| 20260506141545 | 62 | 158 | 1.7 | 10.4 | 0.01 | 0.01 | 0.01 | 93 | 1013.0 |
| 20260506140748 | 62 | 192 | 1.7 | 10.4 | 0.01 | 0.01 | 0.01 | 93 | 1012.9 |
| 20260506140218 | 63 | 239 | 1.7 | 11.3 | 0.01 | 0.01 | 0.01 | 91 | 1012.9 |
| 20260506135716 | 63 | 197 | 8.7 | 11.3 | 0.00 | 0.00 | 0.00 | 87 | 1012.9 |
| 20260506135405 | 64 | 216 | 7.8 | 13.0 | 0.00 | 0.00 | 0.00 | 84 | 1012.9 |
| 20260506134615 | 64 | 182 | 4.3 | 13.0 | 0.00 | 0.00 | 0.00 | 83 | 1013.2 |
| 20260506134116 | 64 | 254 | 1.7 | 10.4 | 0.00 | 0.00 | 0.00 | 83 | 1013.3 |
| 20260506133546 | 65 | 221 | 5.2 | 10.4 | 0.00 | 0.00 | 0.00 | 81 | 1013.1 |
| 20260506133015 | 65 | 166 | 7.8 | 9.6 | 0.00 | 0.00 | 0.00 | 81 | 1012.9 |
| 20260506132516 | 65 | 217 | 3.5 | 11.3 | 0.00 | 0.00 | 0.00 | 80 | 1012.9 |
| 20260506131945 | 65 | 175 | 9.6 | 9.6 | 0.00 | 0.00 | 0.00 | 80 | 1012.8 |
| 20260506131649 | 65 | 165 | 6.1 | 10.4 | 0.00 | 0.00 | 0.00 | 80 | 1013.0 |
| 20260506130915 | 65 | 171 | 7.0 | 11.3 | 0.00 | 0.00 | 0.00 | 79 | 1012.7 |
| 20260506130345 | 65 | 213 | 4.3 | 11.3 | 0.00 | 0.00 | 0.00 | 80 | 1012.6 |
| 20260506125814 | 65 | 225 | 4.3 | 7.0 | 0.00 | 0.00 | 0.00 | 80 | 1012.4 |
| 20260506125315 | 65 | 210 | 1.7 | 13.9 | 0.00 | 0.00 | 0.00 | 79 | 1012.8 |
| 20260506124744 | 65 | 219 | 3.5 | 13.9 | 0.00 | 0.00 | 0.00 | 79 | 1012.6 |
| 20260506124214 | 65 | 183 | 4.3 | 11.3 | 0.00 | 0.00 | 0.00 | 79 | 1012.6 |
| 20260506123714 | 65 | 206 | 4.3 | 10.4 | 0.00 | 0.00 | 0.00 | 79 | 1012.7 |
| 20260506123144 | 65 | 167 | 2.6 | 9.6 | 0.00 | 0.00 | 0.00 | 79 | 1012.7 |
| 20260506122613 | 65 | 234 | 5.2 | 9.6 | 0.00 | 0.00 | 0.00 | 79 | 1012.9 |
| 20260506122114 | 65 | 191 | 1.7 | 11.3 | 0.00 | 0.00 | 0.00 | 79 | 1013.0 |
| 20260506121543 | 65 | 267 | 2.6 | 12.2 | 0.00 | 0.00 | 0.00 | 79 | 1012.7 |
| 20260506121013 | 66 | 230 | 9.6 | 13.0 | 0.00 | 0.00 | 0.00 | 79 | 1012.9 |
| 20260506120512 | 66 | 231 | 10.4 | 13.0 | 0.00 | 0.00 | 0.00 | 79 | 1012.9 |
| 20260506115944 | 66 | 192 | 5.2 | 10.4 | 0.00 | 0.00 | 0.00 | 79 | 1012.8 |
| 20260506115413 | 66 | 202 | 2.6 | 11.3 | 0.00 | 0.00 | 0.00 | 79 | 1012.7 |
| 20260506115129 | 66 | 235 | 8.7 | 11.3 | 0.00 | 0.00 | 0.00 | 79 | 1012.8 |
| 20260506114609 | 66 | 223 | 3.5 | 11.3 | 0.00 | 0.00 | 0.00 | 79 | 1012.8 |
| 20260506113843 | 66 | 231 | 8.7 | 11.3 | 0.00 | 0.00 | 0.00 | 79 | 1012.6 |
| 20260506113312 | 66 | 212 | 3.5 | 12.2 | 0.00 | 0.00 | 0.00 | 79 | 1012.4 |
| 20260506112743 | 66 | 197 | 4.3 | 12.2 | 0.00 | 0.00 | 0.00 | 79 | 1012.4 |
| 20260506112242 | 66 | 175 | 5.2 | 11.3 | 0.00 | 0.00 | 0.00 | 79 | 1012.6 |
| 20260506111712 | 65 | 217 | 1.7 | 11.3 | 0.00 | 0.00 | 0.00 | 80 | 1012.4 |
| 20260506111140 | 65 | 206 | 2.6 | 11.3 | 0.00 | 0.00 | 0.00 | 81 | 1012.3 |
| 20260506110641 | 65 | 222 | 7.0 | 11.3 | 0.00 | 0.00 | 0.00 | 81 | 1012.3 |
| 20260506110345 | 65 | 227 | 4.3 | 12.2 | 0.00 | 0.00 | 0.00 | 81 | 1012.4 |
| 20260506105541 | 65 | 206 | 6.1 | 13.0 | 0.00 | 0.00 | 0.00 | 81 | 1012.3 |
| 20260506105042 | 65 | 224 | 2.6 | 13.0 | 0.00 | 0.00 | 0.00 | 81 | 1012.4 |
| 20260506103941 | 65 | 263 | 4.3 | 12.2 | 0.00 | 0.00 | 0.00 | 81 | 1012.3 |
| 20260506103705 | 65 | 145 | 4.3 | 12.2 | 0.00 | 0.00 | 0.00 | 81 | 1012.4 |
| 20260506102911 | 65 | 240 | 4.3 | 16.5 | 0.00 | 0.00 | 0.00 | 82 | 1012.0 |
| 20260506102340 | 65 | 225 | 2.6 | 16.5 | 0.00 | 0.00 | 0.00 | 82 | 1012.2 |